Tracking 28799 objects as of 18-Apr-2024
HD Live streaming from Space Station
objects crossing your sky now

DELTA 1 DEB

Track DELTA 1 DEB now!
10-day predictions


NORAD ID: 21972
Int'l Code: 1975-052JW
Perigee: 1,043.0 km
Apogee: 1,559.8 km
Inclination: 99.7 °
Period: 111.5 minutes
Semi major axis: 7672 km
RCS: 0.0281 m2 (small)
Launch date: June 12, 1975
Source: United States (US)
Launch site: AIR FORCE WESTERN TEST RANGE (AFWTR)

Note: This is SATELLITE DEBRIS
Your satellite tracking list
Your tracking list is empty




NASA's NSSDC Master Catalog

Two Line Element Set (TLE):
1 21972U 75052JW  24108.79139493  .00000210  00000-0  70954-3 0  9991
2 21972  99.6612  41.8954 0336759  71.5590 346.6893 12.91837573512336
Source of the keplerian elements: AFSPC